Location: Arbon
(43.0005°N, 0.7472°E)
Time: 17:06:52
(UTC+00:00)

Okean 1-7 Rocket - Pass Details

Date: 07 August 2020
Orbit: 617 x 648 km, 82.5° (Epoch: 22 September)

Event Time Altitude Azimuth Distance (km) Brightness Sun altitude
Rises 02:26:31 0° 354° (N) 2,905 7.7 -22.1°
Reaches altitude 10° 02:28:46 10° 357° (N) 1,997 6.8 -21.9°
Maximum altitude 02:33:10 68° 80° (E) 672 3.8 -21.4°
Enters shadow 02:35:06 32° 155° (SSE) 1,066 4.5 -21.2°
